Regional Weather Roundup
Issued by NWS

Home | Current Version | Previous Version | Text Only | Print | Product List | Glossary Off
Versions: 1 2 3 4 5 6 7 8 9 10 11 12 13 14 15 16 17 18 19 20 21 22 23 24 25 26 27 28 29 30 31 32 33 34 35 36 37 38 39 40 41 42 43 44 45 46 47 48 49 50

000
ASUS43 KMPX 200201
RWRMN
WEATHER ROUNDUP FOR MINNESOTA
NATIONAL WEATHER SERVICE TWIN CITIES/CHANHASSEN MN
800 PM CST SUN FEB 19 2017


NOTE: "FAIR" INDICATES FEW OR NO CLOUDS BELOW 12,000 FEET WITH NO
SIGNIFICANT WEATHER AND/OR OBSTRUCTIONS TO VISIBILITY. N/A MEANS
CURRENT SKY AND/OR WEATHER CONDITIONS ARE NOT AVAILABLE.

MNZ060>063-068>070-200300-
   Twin Cities Metro

CITY           SKY/WX    TMP DP  RH WIND       PRES   REMARKS
TWIN CITIES    CLOUDY    52  39  61 SE16      29.88S
ST PAUL        CLOUDY    51  38  60 SE12      29.89S
CRYSTAL        PTCLDY    65  37  35 SE15      29.85S
BLAINE         CLOUDY    54  39  58 SE13G18   29.87S
LAKEVILLE      PTCLDY    43  39  87 CALM      29.89R
EDEN PRAIRIE   CLOUDY    51  41  68 SE14      29.85S
SOUTH ST PAUL  PTCLDY    52  37  55 SE9       29.89S
LAKE ELMO      FAIR      52  37  58 SE13      29.90S
$$
MNZ001>005-007-008-013>017-022>024-027-028-200300-
   Northwest Minnesota

CITY           SKY/WX    TMP DP  RH WIND       PRES   REMARKS
BEMIDJI        CLOUDY    43  32  63 SE15      29.75S
HALLOCK        CLOUDY    46  34  61 SE23G30   29.63F
ROSEAU         CLOUDY    37  32  81 E7        29.73S
WARROAD        CLOUDY    37  34  87 E8        29.76S
THIEF RVR FALL CLOUDY    42  33  70 SE16      29.69S
CROOKSTON      CLOUDY    43  36  75 SE18      29.65S
FOSSTON        PTCLDY    45  34  65 SE12      29.71S
DETROIT LAKES  PTCLDY    45  37  76 SE15      29.71S
MOORHEAD       CLOUDY    48  43  81 SE13      29.65F
PARK RAPIDS    CLOUDY    46  33  60 SE13      29.76R
MAHNOMEN       FAIR      47  37  68 SE15G25   29.69R
$$
MNZ006-009>011-018-025>026-200300-
   North Central Minnesota

CITY           SKY/WX    TMP DP  RH WIND       PRES   REMARKS
BAUDETTE       PTCLDY    40  30  67 E16       29.76F
FLAG ISLAND    CLOUDY    43  28  56 E15G22    29.76F
INTL FALLS     CLOUDY    41  30  65 E13       29.84F
WASKISH        CLOUDY    48  32  53 SE12G17   29.77S
BIG FORK       CLOUDY    45  30  57 SE12G23   29.84R
LONGVILLE      PTCLDY    45  30  57 SE10      29.81R
GRAND RAPIDS   CLOUDY    41  30  65 SE10G17   29.87R
CRANE LAKE     PTCLDY    39  28  65 CALM      29.92F
ORR            CLOUDY    41  27  56 SE3       29.85F
COOK           CLOUDY    41  28  60 E8        29.89F
WALKER         FAIR      45  32  60 SE8       29.78R
$$
MNZ012-019>021-037-200300-
   Northeast Minnesota

CITY           SKY/WX    TMP DP  RH WIND       PRES   REMARKS
DULUTH         CLOUDY    37  30  75 E20       29.93F
ELY            PTCLDY    37  27  65 E7        29.94F
HIBBING        CLOUDY    37  29  72 SE10      29.89S
EVELETH        PTCLDY    37  26  62 E8        29.93R
DULUTH HARBOR  CLOUDY    36  34  93 NE17      29.98F
TWO HARBORS    PTCLDY    39  30  70 E15       29.97F
GRAND MARAIS     N/A     38  28  67 NE14G20   30.07S
G MARAIS ARPRT CLOUDY    30  25  80 E9G16     30.04R WCI  22
$$
MNZ029>031-032-039>041-046>048-054>057-064-200300-
   West Central Minnesota

CITY           SKY/WX    TMP DP  RH WIND       PRES   REMARKS
FERGUS FALLS   CLOUDY    50  45  81 SE22G30   29.72S
WHEATON        PTCLDY    48  46  93 SE16      29.67F
MORRIS         CLOUDY    52  48  87 SE17      29.69F
ALEXANDRIA     PTCLDY    48  43  82 SE15      29.75S
ELBOW LAKE     FAIR      50  47  89 E16G23    29.70S
WADENA         CLOUDY    45  37  76 SE12      29.75S
GLENWOOD       PTCLDY    48  46  93 SE12      29.76R
APPLETON       CLOUDY    55  48  76 SE14      29.69F
BENSON         CLOUDY    55  46  71 S15G21    29.75R
ORTONVILLE     CLOUDY    52  46  82 SE15      29.67S
WILLMAR        FAIR      52  48  87 SE5G21    29.76F
$$
MNZ033>034-036-042>043-049>051-058-059-200300-
   Central Minnesota

CITY           SKY/WX    TMP DP  RH WIND       PRES   REMARKS
ST CLOUD       PTCLDY    51  41  68 SE13      29.82S
SAUK CENTRE    FAIR      48  44  83 SE12G18   29.78R
PAYNESVILLE    PTCLDY    50  44  81 SE16      29.79S
AITKIN         PTCLDY    46  30  53 E8        29.83R
PINE RIVER     MOCLDY    46  36  66 SE14      29.83S
BRAINERD       CLOUDY    48  37  65 SE12      29.82R
STAPLES        CLOUDY    48  37  66 SE9G18    29.77S
LONG PRAIRIE   FAIR      46  41  81 E10       29.78S
LITTLE FALLS   CLOUDY    48  37  66 SE12G20   29.80S
LITCHFIELD     PTCLDY    52  46  82 SE9       29.81R
BUFFALO        PTCLDY    51  42  69 SE10G17   29.84S
MAPLE LAKE     MOCLDY    50  44  78 SE8       29.84R
HUTCHINSON     CLOUDY    50  46  88 SE13      29.83R
$$
MNZ037-044-045-052-053-200300-
   East Central Minnesota

CITY           SKY/WX    TMP DP  RH WIND       PRES   REMARKS
PRINCETON      CLOUDY    52  39  62 SE10G16   29.85S
MORA           MOCLDY    45  34  65 E5        29.89S
CAMBRIDGE      PTCLDY    54  37  54 SE7       29.85F
RUSH CITY      CLOUDY    50  36  57 SE8       29.88F
MOOSE LAKE     PTCLDY    36  32  87 E5        29.89S
HINCKLEY       FAIR      48  34  57 E7        29.89S
CLOQUET        PTCLDY    37  30  75 E12G18    29.91F
MCGREGOR       CLOUDY    39  32  75 E12       29.87S
$$
MNZ071>073-080-081-089-090-097-098-200300-
   Southwest Minnesota

CITY           SKY/WX    TMP DP  RH WIND       PRES   REMARKS
MONTEVIDEO     CLOUDY    55  52  88 S15G23    29.73S
GRANITE FALLS  CLOUDY    55  52  87 SE16      29.74F
CANBY          CLOUDY    52  47  85 E9        29.70S
MARSHALL       CLOUDY    54  49  83 SE16      29.72F
REDWOOD FALLS  PTCLDY    54  49  83 SE18      29.76S
OLIVIA         CLOUDY    52  48  87 SE14      29.77S
PIPESTONE      PTCLDY    54  45  71 S16       29.72F
WINDOM         CLOUDY    55  48  76 SE13G18   29.79F
WORTHINGTON    CLOUDY    54  47  77 SE14      29.77F
JACKSON        CLOUDY    52  45  76 SE9       29.82S
TRACY          PTCLDY    55  50  86 S14       29.74F
SLAYTON        CLOUDY    50  47  89 SE14      29.76F
$$
MNZ065>067-074>077-082>085-091>093-200300-
   South Central Minnesota

CITY           SKY/WX    TMP DP  RH WIND       PRES   REMARKS
MANKATO          N/A     51  45  79 SE16      29.84R
NEW ULM        PTCLDY    54  46  76 SE15G23   29.82R
ST JAMES       PTCLDY    52  48  87 SE12      29.83S
FAIRMONT       CLOUDY    52  48  86 SE12      29.84R
GLENCOE        CLOUDY    50  47  90 SE12      29.83R
FARIBAULT      PTCLDY    52  43  71 SE12      29.88S
OWATONNA       PTCLDY    50  43  76 SE15      29.88S
WASECA         PTCLDY    50  43  76 SE15      29.88R
ALBERT LEA     PTCLDY    52  45  76 SE10      29.88R
$$
MNZ078>079-086>088-094>096-200300-
   Southeast Minnesota

CITY           SKY/WX    TMP DP  RH WIND       PRES   REMARKS
ROCHESTER      PTCLDY    46  39  76 SE14      29.92S
RED WING       PTCLDY    52  36  54 SE10      29.91S
STANTON        CLOUDY    53  41  63 SE15G22   29.87S
DODGE CENTER   CLOUDY    45  39  81 SE13      29.91R
WINONA         CLOUDY    48  36  61 S5        29.96R
AUSTIN         CLOUDY    46  39  76 SE9       29.90S
PRESTON        PTCLDY    48  38  67 SE9       29.94S
$$
ABBREVIATIONS USED IN REMARKS
   TC - TEMPERATURES IN CELSIUS
  WCI - WIND CHILL INDEX
   HX - HEAT INDEX
  VSB - VISIBILITY
$$




USA.gov is the U.S. government's official web portal to all federal, state and local government web resources and services.